Weather reports worldwide

Advertisment
Tyler, tx, United States of America (2074041): temperature & dewpoint: 17.03.2019 04:00:00 - 23.03.2019 04:00:00 (CDT)Tyler, tx, United States of America (2074041): wind speed & gusts: 17.03.2019 04:00:00 - 23.03.2019 04:00:00 (CDT)Tyler, tx, United States of America (2074041): wind direction: 17.03.2019 04:00:00 - 23.03.2019 04:00:00 (CDT)Tyler, tx, United States of America (2074041): reduced air pressure: 17.03.2019 04:00:00 - 23.03.2019 04:00:00 (CDT)Tyler, tx, United States of America (2074041): visibility: 17.03.2019 04:00:00 - 23.03.2019 04:00:00 (CDT)Tyler, tx, United States of America (2074041): precipitation: 17.03.2019 04:00:00 - 23.03.2019 04:00:00 (CDT)
Date & Time tt [°C] td [°C] ff [km/h] ff [kn] fx [km/h] fx [kn] dd ppp [hPa] vv [km] rr [mm]
23.03.2019 04:00:00 14,4 6,1 15 8 - - SSE 1017,5 16 -
23.03.2019 03:00:00 13,9 5,0 9 5 - - SSE 1017,9 16 -
23.03.2019 02:00:00 15,6 4,4 13 7 - - S 1017,3 16 -
23.03.2019 01:00:00 16,1 4,4 15 8 - - SE 1017,2 16 -
23.03.2019 00:00:00 15,6 4,4 13 7 - - SE 1017,9 16 -
22.03.2019 23:00:00 15,6 4,4 13 7 - - SE 1018,1 16 -
22.03.2019 22:00:00 16,7 4,4 13 7 - - ESE 1018,3 16 -
22.03.2019 21:00:00 18,3 3,9 9 5 - - ESE 1018,3 16 -
22.03.2019 20:00:00 20,6 2,8 8 4 - - ESE 1017,7 16 -
22.03.2019 19:00:00 22,8 2,8 13 7 - - SE 1017,6 16 -
22.03.2019 18:00:00 24,4 1,1 11 6 - - SSE 1017,1 16 -
22.03.2019 17:00:00 24,4 1,1 8 4 - - - 1017,7 16 -
22.03.2019 16:00:00 25,0 0,0 5 3 - - NE 1018,3 16 -
22.03.2019 15:00:00 23,9 0,0 8 4 - - SSW 1019,3 16 -
22.03.2019 14:00:00 23,3 0,6 8 4 - - - 1020,6 16 -
22.03.2019 13:00:00 23,3 1,1 9 5 - - - 1021,5 16 -
22.03.2019 12:00:00 21,1 0,6 5 3 - - - 1021,9 16 -
22.03.2019 11:00:00 19,4 0,6 9 5 - - SE 1022,3 16 -
22.03.2019 10:00:00 17,2 1,7 5 3 - - ENE 1022,7 16 -
22.03.2019 09:00:00 12,8 4,4 5 3 - - NNE 1022,4 16 -
22.03.2019 08:00:00 9,4 2,2 0 0 - - N 1021,9 16 -
22.03.2019 07:00:00 8,9 2,8 0 0 - - N 1021,4 16 -
22.03.2019 06:00:00 10,0 1,7 0 0 - - N 1021,0 16 -
22.03.2019 05:00:00 10,6 2,8 0 0 - - N 1020,4 16 -
22.03.2019 04:00:00 10,6 3,9 5 3 - - ENE 1020,2 16 -
22.03.2019 03:00:00 10,6 3,9 5 3 - - NNE 1020,3 16 -
22.03.2019 02:00:00 10,0 4,4 0 0 - - N 1020,7 16 -
22.03.2019 01:00:00 11,7 4,4 0 0 - - N 1020,6 16 -
22.03.2019 00:00:00 12,8 2,8 0 0 - - N 1020,5 16 -
21.03.2019 23:00:00 14,4 2,2 0 0 - - N 1020,4 16 -
21.03.2019 22:00:00 14,4 2,8 0 0 - - N 1020,2 16 -
21.03.2019 21:00:00 16,1 2,2 0 0 - - N 1019,8 16 -
21.03.2019 20:00:00 18,3 1,7 5 3 - - N 1019,4 16 -
21.03.2019 19:00:00 21,1 0,6 8 4 - - NW 1019,3 16 -
21.03.2019 18:00:00 22,8 -0,6 8 4 - - WNW 1019,0 16 -
21.03.2019 17:00:00 23,9 -1,1 18 10 - - NNW 1019,4 16 -
21.03.2019 16:00:00 23,9 -0,6 24 13 - - NNW 1019,9 16 -
21.03.2019 15:00:00 23,3 0,0 22 12 - - NW 1020,5 16 -
21.03.2019 14:00:00 23,3 -0,6 18 10 - - NNW 1021,3 16 -
21.03.2019 13:00:00 22,2 2,2 15 8 - - W 1022,0 16 -
21.03.2019 12:00:00 21,1 2,8 18 10 - - WNW 1022,7 16 -
21.03.2019 11:00:00 18,3 3,9 15 8 - - W 1023,2 16 -
21.03.2019 10:00:00 13,9 5,6 11 6 - - W 1023,2 16 -
21.03.2019 09:00:00 10,6 6,1 11 6 - - WSW 1023,1 16 -
21.03.2019 08:00:00 5,6 3,9 5 3 - - WSW 1022,6 16 -
21.03.2019 07:00:00 4,4 3,3 5 3 - - SW 1022,4 13 -
21.03.2019 06:00:00 6,7 5,0 5 3 - - - 1022,1 16 -
21.03.2019 05:00:00 7,2 5,6 9 5 - - SW 1021,7 16 -
21.03.2019 04:00:00 7,2 5,6 8 4 - - SW 1022,0 16 -
21.03.2019 03:00:00 6,1 5,0 5 3 - - SSW 1022,2 16 -
21.03.2019 02:00:00 7,8 5,6 5 3 - - SW 1022,8 16 -
21.03.2019 01:00:00 8,3 6,1 5 3 - - SW 1022,9 16 -
21.03.2019 00:00:00 8,3 5,6 5 3 - - SW 1023,3 16 -
20.03.2019 23:00:00 10,0 6,1 0 0 - - N 1023,4 16 -
20.03.2019 22:00:00 10,6 6,1 0 0 - - N 1023,2 16 -
20.03.2019 21:00:00 12,2 6,7 0 0 - - N 1022,5 16 -
20.03.2019 20:00:00 14,4 6,1 0 0 - - N 1022,3 16 -
20.03.2019 19:00:00 16,7 6,1 8 4 - - NNW 1021,7 16 -
20.03.2019 18:00:00 17,2 6,1 18 10 - - NW 1021,6 16 -
20.03.2019 17:00:00 16,7 6,7 21 11 - - NNW 1022,1 16 0,0
20.03.2019 16:00:00 15,0 9,4 24 13 52 28 NNW 1022,5 16 0,0
20.03.2019 15:00:00 20,0 6,1 21 11 - - W 1021,8 16 -
20.03.2019 14:00:00 19,4 5,0 24 13 - - W 1022,7 16 -
20.03.2019 13:00:00 20,6 2,2 21 11 - - W 1023,3 16 -
20.03.2019 12:00:00 19,4 2,2 26 14 - - SW 1024,0 16 -
20.03.2019 11:00:00 18,3 3,9 16 9 - - SW 1024,4 16 -
20.03.2019 10:00:00 15,6 6,1 15 8 - - SW 1024,3 16 -
20.03.2019 09:00:00 11,7 6,7 9 5 - - SSW 1024,0 16 -
20.03.2019 08:00:00 8,9 5,0 11 6 - - SSW 1023,6 16 -
20.03.2019 07:00:00 8,3 5,0 9 5 - - S 1023,1 16 -
20.03.2019 06:00:00 8,9 5,0 9 5 - - SSE 1022,6 16 -
20.03.2019 05:00:00 8,3 4,4 13 7 - - SE 1022,0 16 -
20.03.2019 04:00:00 10,0 5,0 9 5 - - S 1022,6 16 -
20.03.2019 03:00:00 10,6 5,0 11 6 - - SE 1022,9 16 -
20.03.2019 02:00:00 11,1 3,9 9 5 - - S 1023,0 16 -
20.03.2019 01:00:00 11,7 3,9 8 4 - - SSE 1023,1 16 -
20.03.2019 00:00:00 12,2 4,4 8 4 - - S 1023,2 16 -
19.03.2019 23:00:00 12,8 4,4 13 7 - - SE 1023,1 16 -
19.03.2019 22:00:00 15,0 4,4 9 5 - - ESE 1022,7 16 -
19.03.2019 21:00:00 16,1 3,9 9 5 - - SSE 1022,4 16 -
19.03.2019 20:00:00 17,2 3,3 8 4 - - SE 1021,9 16 -
19.03.2019 19:00:00 18,9 2,2 9 5 - - SSE 1021,8 16 -
19.03.2019 18:00:00 21,1 0,6 13 7 - - S 1021,8 16 -
19.03.2019 17:00:00 21,1 0,0 11 6 - - ESE 1022,2 16 -
19.03.2019 16:00:00 20,6 1,1 9 5 - - S 1022,5 16 -
19.03.2019 15:00:00 20,6 2,2 9 5 - - SE 1023,3 16 -
19.03.2019 14:00:00 20,0 2,8 9 5 - - E 1024,8 16 -
19.03.2019 13:00:00 18,9 2,2 16 9 - - S 1025,9 16 -
19.03.2019 12:00:00 18,3 2,2 13 7 - - S 1026,3 16 -
19.03.2019 11:00:00 16,7 3,3 9 5 - - S 1026,8 16 -
19.03.2019 10:00:00 15,6 4,4 15 8 - - SSE 1026,4 16 -
19.03.2019 09:00:00 11,7 3,9 15 8 - - SSE 1026,1 16 -
19.03.2019 08:00:00 9,4 4,4 15 8 - - SE 1025,6 16 -
19.03.2019 07:00:00 9,4 4,4 13 7 - - SSE 1025,0 16 -
19.03.2019 06:00:00 9,4 4,4 11 6 - - SSE 1024,4 16 -
19.03.2019 05:00:00 11,1 4,4 8 4 - - ENE 1023,8 16 -
19.03.2019 04:00:00 12,2 3,3 9 5 - - E 1024,0 16 -
19.03.2019 03:00:00 10,6 3,9 9 5 - - ENE 1024,4 16 -
19.03.2019 02:00:00 11,1 3,3 0 0 - - N 1024,3 16 -
19.03.2019 01:00:00 13,3 1,7 0 0 - - N 1024,3 16 -
19.03.2019 00:00:00 12,2 4,4 8 4 - - SE 1024,7 16 -
18.03.2019 23:00:00 12,2 2,8 9 5 - - SSE 1024,5 16 -
18.03.2019 22:00:00 14,4 1,1 9 5 - - SSE 1024,2 16 -
18.03.2019 21:00:00 16,1 0,6 9 5 - - ESE 1023,8 16 -
18.03.2019 20:00:00 17,2 1,7 9 5 - - ESE 1023,7 16 -
18.03.2019 19:00:00 20,0 0,6 13 7 - - SE 1023,3 16 -
18.03.2019 18:00:00 21,7 -1,7 15 8 - - SE 1023,0 16 -
18.03.2019 17:00:00 21,1 -2,8 8 4 - - - 1023,2 16 -
18.03.2019 16:00:00 21,7 -1,7 15 8 - - SE 1023,6 16 -
18.03.2019 15:00:00 21,7 -1,7 9 5 - - ENE 1024,4 16 -
18.03.2019 14:00:00 20,6 -2,2 9 5 - - ESE 1025,3 16 -
18.03.2019 13:00:00 20,6 -2,2 9 5 - - NNE 1026,4 16 -
18.03.2019 12:00:00 19,4 -3,3 9 5 - - - 1027,0 16 -
18.03.2019 11:00:00 18,3 -1,7 9 5 - - ESE 1027,2 16 -
18.03.2019 10:00:00 14,4 2,2 0 0 - - N 1027,0 10 -
18.03.2019 09:00:00 9,4 2,2 5 3 - - NNE 1026,6 16 -
18.03.2019 08:00:00 5,0 1,7 0 0 - - N 1025,9 16 -
18.03.2019 07:00:00 4,4 1,7 0 0 - - N 1025,5 16 -
18.03.2019 06:00:00 5,6 2,2 0 0 - - N 1024,8 16 -
18.03.2019 05:00:00 6,1 2,2 0 0 - - N 1024,3 16 -
18.03.2019 04:00:00 6,7 2,2 0 0 - - N 1024,5 16 -
18.03.2019 03:00:00 7,2 1,7 0 0 - - N 1024,7 16 -
18.03.2019 02:00:00 7,8 1,7 0 0 - - N 1025,0 16 -
18.03.2019 01:00:00 9,4 -0,6 0 0 - - N 1025,2 16 -
18.03.2019 00:00:00 10,0 1,1 0 0 - - N 1025,4 16 -
17.03.2019 23:00:00 11,7 -0,6 0 0 - - N 1025,5 16 -
17.03.2019 22:00:00 12,8 0,6 0 0 - - N 1025,1 16 -
17.03.2019 21:00:00 13,3 -1,1 0 0 - - N 1024,9 16 -
17.03.2019 20:00:00 16,7 -2,8 5 3 - - ENE 1024,3 16 -
17.03.2019 19:00:00 17,8 -2,8 5 3 - - E 1023,9 16 -
17.03.2019 18:00:00 18,9 -3,9 16 9 - - SE 1023,6 16 -
17.03.2019 17:00:00 18,9 -5,0 13 7 - - E 1023,8 16 -
17.03.2019 16:00:00 19,4 -3,3 13 7 - - ENE 1024,0 16 -
17.03.2019 15:00:00 18,3 -5,0 0 0 - - N 1025,4 16 -
17.03.2019 14:00:00 17,2 -4,4 11 6 - - - 1026,6 16 -
17.03.2019 13:00:00 16,7 -3,9 13 7 - - E 1027,5 16 -
17.03.2019 12:00:00 16,1 -5,0 15 8 - - NE 1028,0 16 -
17.03.2019 11:00:00 14,4 -3,9 11 6 - - E 1028,5 16 -
17.03.2019 10:00:00 11,7 0,0 0 0 - - N 1028,7 16 -
17.03.2019 09:00:00 7,2 -0,6 0 0 - - N 1028,2 16 -
17.03.2019 08:00:00 2,8 -0,6 0 0 - - N 1027,6 16 -
17.03.2019 07:00:00 2,8 0,0 0 0 - - N 1027,5 16 -
17.03.2019 06:00:00 3,9 -0,6 0 0 - - N 1026,6 16 -
17.03.2019 05:00:00 3,3 0,0 0 0 - - N 1026,0 16 -
17.03.2019 04:00:00 4,4 0,0 5 3 - - NNW 1026,5 16 -

tt = temperature
td = dewpoint
ff = wind speed
fx = gusts
dd = wind direction
ppp = reduced air pressure
vv = visibility
rr = precipitation

Next stations